Regional Weather Roundup
Issued by NWS

Home | Current Version | Previous Version | Text Only | Print | Product List | Glossary On
Versions: 1 2 3 4 5 6 7 8 9 10 11 12 13 14 15 16 17 18 19 20 21 22 23 24 25 26 27 28 29 30 31 32 33 34 35 36 37 38 39 40 41 42 43 44 45 46 47 48 49 50
000
ASUS45 KBOI 030210
RWRID
WEATHER ROUNDUP FOR IDAHO
NATIONAL WEATHER SERVICE BOISE ID
800 PM MDT TUE SEP 02 2014

NOTE: "FAIR" INDICATES FEW OR NO CLOUDS BELOW 12000 FEET
WITH NO SIGNIFICANT WEATHER AND/OR OBSTRUCTIONS TO VISIBILITY

IDZ012-014-030300-
SOUTHWEST IDAHO


CITY           SKY/WX    TMP DP  RH WIND       PRES   REMARKS
BOISE          CLEAR     86  32  14 N5        29.67F
CALDWELL       CLEAR     82  43  24 NE5       29.67F
MOUNTAIN HOME  CLEAR     84  35  17 SE7       29.69F
$$

IDZ016-017-030300-
SOUTHCENTRAL IDAHO


CITY           SKY/WX    TMP DP  RH WIND       PRES   REMARKS
BURLEY         CLEAR     72  50  45 SE3       29.80F
JEROME         CLEAR     68  47  46 NE7       29.78F
TWIN FALLS     CLEAR     75  47  36 E10       29.78F
$$

IDZ019>023-030300-
SOUTHEAST IDAHO


CITY           SKY/WX    TMP DP  RH WIND       PRES   REMARKS
IDAHO FALLS    CLEAR     74  30  19 S10       29.85F
POCATELLO      CLEAR     70  38  31 S6        29.85F
REXBURG        CLEAR     69  36  29 S6        29.86F
$$

IDZ006-010-011-018-031-032-030300-
CENTRAL IDAHO MOUNTAINS


CITY           SKY/WX    TMP DP  RH WIND       PRES   REMARKS
MCCALL         CLEAR     69  32  25 SE8       29.81F
HAILEY         CLEAR     73  34  23 S6        29.88F
STANLEY          N/A     64  24  21 S6        29.94F
SALMON         CLEAR     73  27  17 W8        29.70R
CHALLIS        CLEAR     74  17  11 W9        29.81R
$$

IDZ002-004-006-007-026-030300-
NORTHERN IDAHO


CITY           SKY/WX    TMP DP  RH WIND       PRES   REMARKS
LEWISTON       PTCLDY    79  34  19 NW21G28   29.64F
LOWELL           N/A     68  52  56 CALM      29.65R
COEUR D`ALENE  MOCLDY    70  41  35 SW8       29.66F
MULLAN PASS    CLOUDY    53  31  42 SW8G20    29.83F
$$



USA.gov is the U.S. government's official web portal to all federal, state and local government web resources and services.